Location: Unspecified
(38.0989°N, 0.6729°W)
Time: 11:45:08
(UTC+01:00)

Hubble Space Telescope - Visible Passes

Search period start: 22 November 2017 00:00
Search period end: 02 December 2017 00:00
Orbit: 537 x 541 km, 28.5° (Epoch: 21 November)

Date Brightness Start Highest point End Pass type
(mag) Time Alt. Az. Time Alt. Az. Time Alt. Az.
22 Nov 3.6 05:04:52 13° SE 05:04:52 13° SE 05:05:37 10° SE visible
22 Nov 2.8 06:40:14 10° SW 06:43:12 20° S 06:46:13 10° SE visible
23 Nov 3.9 04:55:18 10° SE 04:55:18 10° SE 04:55:23 10° SE visible
23 Nov 2.8 06:30:40 13° SW 06:32:53 18° S 06:35:45 10° SE visible
24 Nov 2.8 06:21:05 14° SW 06:22:33 17° SSW 06:25:13 10° SSE visible
25 Nov 2.9 06:11:30 14° SSW 06:12:14 15° SSW 06:14:35 10° SSE visible
26 Nov 3.1 06:01:56 13° SSW 06:01:56 13° SSW 06:03:47 10° S visible
27 Nov 3.4 05:52:23 10° S 05:52:23 10° S 05:52:37 10° S visible
